User: anonymous   Login
Location: Unspecified
(0.0000°N, 0.0000°E)
Time: 08:27:49
(UTC+02:00)
Language:

Cosmos 494 Rocket - Orbit

View from above orbital plane
View from above orbital plane
View from above satellite
View from above satellite

Ground track
Ground track

The orbit data is extracted from the following two-line orbital elements,

1 06061U 72043B   15216.50005812  .00000066  00000-0  29091-4 0  9992
2 06061 074.0579 000.9070 0020888 301.6117 058.2999 14.40384636260018
Epoch (UTC): 04 August 2015 12:00:05
Eccentricity: 0.0020888
inclination: 74.0579°
perigee height: 742 km
apogee height: 772 km
right ascension of ascending node: 0.9070°
argument of perigee: 301.6117°
revolutions per day: 14.40384636
mean anomaly at epoch: 58.2999°
orbit number at epoch: 26001

The dashed part of the orbit path shows where the satellite is in the earth's shadow,  

DLR